Hourly Data Report for October 20, 2016

All times are specified in Local Standard Time (LST). Add 1 hour to adjust for Daylight Saving Time where and when it is observed.

POND INLET A
NUNAVUT

72°41'22.000" N
77°58'08.000" W
61.60 m
2403206
71095
YIO

Related Data

No related data is available for this station

Download Data

Hourly Data (October 2016)
Hourly Data Report for October 20, 2016
Temp Definition
°C
Dew Point Temp Definition
°C
Rel Hum Definition
%
Wind Dir Definition
10's deg

Wind Spd Definition
km/h
Visibility Definition
km
Stn Press Definition
kPa
Hmdx Definition


Wind Chill Definition


Weather Definition


TIME
00:00 Legend Double Dagger -11.4 -12.7 90 7 8 12.9 99.95   -16 LegendNANA
01:00 Legend Double Dagger -12.0 -13.2 91 7 9 16.1 99.87   -17 LegendNANA
02:00 Legend Double Dagger -11.3 -13.2 86 7 9 16.1 99.79   -16 LegendNANA
03:00 Legend Double Dagger -10.5 -14.5 73   0 16.1 99.73     LegendNANA
04:00 Legend Double Dagger -10.6 -13.4 80 6 9 16.1 99.68   -16 Snow
05:00 Legend Double Dagger -11.3 -14.1 80 5 13 16.1 99.65   -18 LegendNANA
06:00 Legend Double Dagger -11.0 -14.1 78 3 8 16.1 99.60   -16 LegendNANA
07:00 Legend Double Dagger -12.1 -15.1 79 15 13 16.1 99.55   -19 LegendNANA
08:00 Legend Double Dagger -11.2 -14.0 80 16 9 16.1 99.51   -16 LegendNANA
09:00 Legend Double Dagger -10.9 -14.0 78 21 5 16.1 99.48   -14 LegendNANA
10:00 Legend Double Dagger -10.3 -13.6 77 14 11 16.1 99.46   -16 LegendNANA
11:00 Legend Double Dagger -9.3 -12.8 76 24 8 16.1 99.44   -14 LegendNANA
12:00 Legend Double Dagger -9.6 -11.7 85 17 8 8.1 99.45   -14 Snow
13:00 Legend Double Dagger -9.4 -10.8 90 19 8 4.8 99.48   -14 Snow
14:00 Legend Double Dagger -9.5 -10.7 91 17 5 2.4 99.52   -12 Snow
15:00 Legend Double Dagger -8.7 -9.6 93 20 8 3.2 99.57   -13 Snow
16:00 Legend Double Dagger -8.9 -9.8 93 20 8 2.0 99.62   -13 Snow
17:00 Legend Double Dagger -8.8 -9.9 92 LegendMM 4 2.8 99.65   -11 Snow
18:00 Legend Double Dagger -8.1 -11.1 79 6 9 16.1 99.68   -13 Snow
19:00 Legend Double Dagger -8.1 -12.0 74 7 9 16.1 99.73   -13 LegendNANA
20:00 Legend Double Dagger -7.9 -12.8 68 7 13 16.1 99.78   -14 LegendNANA
21:00 Legend Double Dagger -7.8 -13.0 66 8 15 16.1 99.85   -14 LegendNANA
22:00 Legend Double Dagger -8.2 -13.5 66 8 9 16.1 99.88   -13 LegendNANA
23:00 Legend Double Dagger -10.0 -12.8 80 13 13 16.1 99.94   -16 LegendNANA

Notes on Data Quality.

Legend

  • E = Estimated
  • M = Missing
  • NA = Not Available
  • ‡ = Partner data that is not subject to review by the National Climate Archives
Date modified: